Regional Weather Roundup
Issued by NWS

Home | Current Version | Previous Version | Graphics & Text | Print | Product List | Glossary On
Versions: 1 2 3 4 5 6 7 8 9 10 11 12 13 14 15 16 17 18 19 20 21 22 23 24 25 26 27 28 29 30 31 32 33 34 35 36 37 38 39 40 41 42 43 44 45 46 47 48 49 50
000
ASUS43 KLOT 240513
RWRIL

ILLINOIS REGIONAL WEATHER ROUNDUP
NATIONAL WEATHER SERVICE CHICAGO/ROMEOVILLE IL
1200 AM CDT SUN MAY 24 2015

NOTE: "FAIR" INDICATES FEW OR NO CLOUDS BELOW 12,000 FEET WITH NO
SIGNIFICANT WEATHER AND/OR OBSTRUCTIONS TO VISIBILITY.

* THESE STATIONS ARE NOT UNDER NWS QUALITY CONTROL. THEY ALSO MAY NOT
  REPORT WEATHER SUCH AS PRECIPITATION OR FOG.

ILZ001-002-007-009-015-016-024-240600-
NORTHWEST ILLINOIS

CITY           SKY/WX    TMP DP  RH WIND       PRES   REMARKS
MOLINE         MOCLDY    61  49  64 SE6       30.13F
STERLING*      CLOUDY    66  48  52 SE3       30.16F
SAVANNA*       MOCLDY    61  53  73 CALM      30.15F
$$

ILZ003-004-008-010-011-017-018-240600-
NORTH CENTRAL ILLINOIS

CITY           SKY/WX    TMP DP  RH WIND       PRES   REMARKS
ROCKFORD       MOCLDY    61  49  64 CALM      30.19F
FREEPORT*      MOCLDY    60  49  67 SE3       30.18F
ROCHELLE*      MOCLDY    60  50  69 SE5       30.18F
DE KALB*       MOCLDY    62  47  58 SE3       30.19F
PERU*          CLOUDY    67  48  50 S9        30.17F
$$

ILZ005-006-012>014-019>023-240600-
NORTHEAST ILLINOIS

CITY           SKY/WX    TMP DP  RH WIND       PRES   REMARKS
CHICAGO-OHARE  PTCLDY    63  45  51 S6        30.20S
CHICAGO-MIDWAY MOCLDY    71  44  37 S6        30.20F
AURORA         MOCLDY    63  47  55 SE6       30.19F
LANSING*       PTCLDY    60  44  55 S5        30.21S
JOLIET*        MOCLDY    67  48  50 CALM      30.19F
WAUKEGAN       PTCLDY    51  41  68 CALM      30.19F
DUPAGE AIRPORT PTCLDY    62  47  57 S6        30.19F
KANKAKEE*      MOCLDY    63  48  59 S5        30.21F
WHEELING       PTCLDY    59  45  59 CALM      30.22S
MORRIS*        MOCLDY    64  47  53 S6        30.18F
ROMEOVILLE*    MOCLDY    64  45  50 S6        30.19F
NORTHERLY ISL    N/A     58  49  72 SW1         N/A
$$

LMZ740>746-240600-
SOUTHERN LAKE MICHIGAN

STATION/POSITION SKY/WX   TEMP    WIND        PRES    VSBY  WAVE
                          AIR SEA DIR/SP/G                  HT/PER
                          (F)     (DEG/KT/KT) (MB)    (MI)  (FT/S)
SOUTHERN BUOY              48 38  140/  8/ 10 1023.4F         0
HARRISON CRIB              60     170/  5/  6   N/A
BURNHAM HARBOR             64     200/  5       N/A
CALUMET HARBOR             71     180/  5/  8   N/A
BURNS HARBOR               69     180/  7/ 10 1023.4S
MICHIGAN CITY              71     150/ 10/ 14   N/A
MICHIGAN CITY 6N           60 54  170/  4/  4   N/A           0
ST. JOSEPH                 62 57  160/  6/  6   N/A           0
$$

ILZ025>027-034>036-040-047-049-050-058-095>099-240600-
WEST-CENTRAL ILLINOIS

CITY           SKY/WX    TMP DP  RH WIND       PRES   REMARKS
QUINCY         CLOUDY    67  51  56 SE8       30.11F
GALESBURG*     CLOUDY    67  50  54 E6        30.14F
MACOMB*        CLOUDY    69  51  52 SE8       30.16S
JACKSONVILLE*  CLOUDY    70  52  52 SE7       30.15R
PITTSFIELD*    CLOUDY    69  52  54 SE7       30.14F
$$

ILZ028>032-037-038-041>044-048-051>054-059>061-240600-
CENTRAL ILLINOIS

CITY           SKY/WX    TMP DP  RH WIND       PRES   REMARKS
PONTIAC        MOCLDY    64  50  61 SE7       30.20S
BLOOMINGTON    CLOUDY    67  51  56 S9        30.20F
DECATUR        CLOUDY    67  50  54 SE7       30.18F
PEORIA         CLOUDY    70  50  49 SE6       30.16F
LACON*         CLOUDY    68  49  49 SE8       30.16F
LINCOLN*       CLOUDY    69  51  54 SE6       30.15F
SPRINGFIELD    CLOUDY    72  49  44 SE12      30.15F
TAYLORVILLE    CLOUDY    66  50  55 SE8       30.17F
$$

ILZ033-039-045-046-055>057-062-063-240600-
EAST-CENTRAL ILLINOIS

CITY           SKY/WX    TMP DP  RH WIND       PRES   REMARKS
CHAMPAIGN      MOCLDY    67  49  52 SE6       30.20F
DANVILLE*      PTCLDY    64  48  56 SE6       30.19F
RANTOUL*       MOCLDY    67  51  57 SE5       30.20F
MATTOON        CLOUDY    63  50  62 SE5       30.19F
PARIS*         MOCLDY    66  49  55 SE5       30.22F
$$

ILZ079-100>102-240600-
SOUTHWEST ILLINOIS

CITY           SKY/WX    TMP DP  RH WIND       PRES   REMARKS
ALTON          MOCLDY    64  56  75 E5        30.16S
BELLEVILLE     PTCLDY    65  56  72 E7        30.13F
CAHOKIA*       MOCLDY    68  53  58 SE3       30.13F
SPARTA*        PTCLDY    65  55  70 SE6       30.15F
$$

ILZ064>066-069>071-074>076-080>082-084>086-088>090-092>094-240600-
SOUTH-CENTRAL ILLINOIS

CITY           SKY/WX    TMP DP  RH WIND       PRES   REMARKS
CARBONDALE     PTCLDY    64  54  69 SE6       30.15F
CAIRO*         PTCLDY    66  56  69 E3        30.16S
EFFINGHAM*     CLOUDY    63  49  61 E3        30.21S
MARION         PTCLDY    66  54  63 E5        30.17F
MT. VERNON     CLOUDY    63  50  63 E3        30.18F
CENTRALIA*     CLOUDY    66  51  57 E3        30.16F
SALEM*         CLOUDY    69  50  50 E5        30.18F
METROPOLIS*    CLEAR     64  57  79 CALM      30.16F
$$

ILZ067-068-072-073-078-083-087-091-240600-
SOUTHEAST ILLINOIS

CITY           SKY/WX    TMP DP  RH WIND       PRES   REMARKS
LAWRENCEVILLE  CLOUDY    63  53  70 E7        30.21F
FLORA*         CLOUDY    64  52  66 SE6       30.19F
FAIRFIELD*     CLOUDY    66  52  61 CALM      30.18F
HARRISBURG*    MOCLDY    65  55  70 SE3       30.19F
ROBINSON*      CLOUDY    62  54  74 CALM      30.22F
CARMI*         MOCLDY    63  52  67 CALM      30.19S
$$

ABBREVIATIONS USED IN REMARKS
   TC - TEMPERATURE IN CELSIUS
  WCI - WIND CHILL INDEX
   HX - HEAT INDEX
  VSB - VISIBILITY
$$



USA.gov is the U.S. government's official web portal to all federal, state and local government web resources and services.